DW4641 Stratford CT US current weather conditions

sailwx.info

Wind from 234 at 1 knots gusting 6

Air temperature -2.2° C
Dewpoint -9.1° C

Last reported at 2020-Feb-28 12:10 UTC.
Time now 2020-Feb-28 13:09 UTC

Location: N 41°12' W 073°08'.
View on Google Maps.

See reports from other nearby stations

  
Tides and Currents Weather Stations Pressure Air Temp Water Temp Dewpoint Dewpoint Depression Visibility Wind Speed Wind Dir Waves Ship Positions
date/time (UTC)wind fromknots sea level pressurealtimeterstation pressurevisibilityair tempwater tempwave heightnotes
2020-Feb-28 12:10 234 1 gusting 6 -2.2
2020-Feb-28 12:05 246 2 gusting 6 -2.2
2020-Feb-28 12:00 262 1 gusting 6 -2.2
2020-Feb-28 11:55 232 1 gusting 6 -2.2
2020-Feb-28 11:50 214 2 gusting 6 -2.2
2020-Feb-28 11:45 227 2 gusting 6 -2.2
2020-Feb-28 11:40 219 2 gusting 6 -2.2
2020-Feb-28 11:35 201 3 gusting 10 -2.2
2020-Feb-28 11:30 202 3 gusting 10 -2.2
2020-Feb-28 11:25 205 2 gusting 7 -2.2
2020-Feb-28 11:20 206 2 gusting 6 -2.2
2020-Feb-28 11:15 206 2 gusting 6 -2.2
2020-Feb-28 11:10 215 1 gusting 4 -2.2
2020-Feb-28 11:05 209 1 gusting 4 -2.2
2020-Feb-28 11:00 203 1 gusting 6 -2.2
2020-Feb-28 10:55 221 2 gusting 6 -2.2
2020-Feb-28 10:50 224 2 gusting 9 -2.2
2020-Feb-28 10:45 225 2 gusting 9 -2.2
2020-Feb-28 10:40 225 2 gusting 10 -2.2
2020-Feb-28 10:35 237 2 gusting 10 -2.2
2020-Feb-28 10:30 243 2 gusting 8 -2.2
2020-Feb-28 10:25 233 2 gusting 8 -2.2
2020-Feb-28 10:20 222 2 gusting 6 -2.2
2020-Feb-28 10:15 222 1 gusting 6 -2.2
2020-Feb-28 10:10 222 1 gusting 5 -2.2
2020-Feb-28 10:05 229 2 gusting 5 -2.2
2020-Feb-28 10:00 243 2 gusting 9 -2.2
2020-Feb-28 09:55 239 1 gusting 9 -2.2
2020-Feb-28 09:50 228 1 gusting 7 -2.2
2020-Feb-28 09:45 233 1 gusting 8 -2.2
2020-Feb-28 09:40 219 2 gusting 8 -1.7
2020-Feb-28 09:35 220 3 gusting 9 -1.7
2020-Feb-28 09:30 235 3 gusting 9 -1.7
2020-Feb-28 09:25 238 2 gusting 8 -1.7
2020-Feb-28 09:20 241 1 gusting 5 -1.7
2020-Feb-28 09:15 226 2 gusting 6 -1.7
2020-Feb-28 09:10 233 2 gusting 7 -1.7
2020-Feb-28 09:05 251 3 gusting 9 -1.7
2020-Feb-28 09:00 236 3 gusting 9 -1.7
2020-Feb-28 08:55 223 4 gusting 11 -1.7
2020-Feb-28 08:50 230 3 gusting 11 -1.7
2020-Feb-28 08:45 222 3 gusting 9 -1.7
2020-Feb-28 08:40 200 2 gusting 9 -1.7
2020-Feb-28 08:35 206 2 gusting 6 -1.7
2020-Feb-28 08:30 205 2 gusting 6 -1.7
2020-Feb-28 08:25 201 2 gusting 6 -1.7
2020-Feb-28 08:20 215 2 gusting 6 -1.7
2020-Feb-28 08:15 212 2 gusting 7 -1.7
2020-Feb-28 08:10 209 2 gusting 7 -1.7
2020-Feb-28 08:05 213 2 gusting 7 -1.7
2020-Feb-28 08:00 212 2 gusting 10 -1.7
2020-Feb-28 07:55 208 3 gusting 10 -1.7
2020-Feb-28 07:50 208 3 gusting 8 -1.7
2020-Feb-28 07:45 209 2 gusting 8 -1.7
2020-Feb-28 07:40 218 2 gusting 8 -1.7
2020-Feb-28 07:35 214 2 gusting 8 -1.7
2020-Feb-28 07:30 206 2 gusting 7 -1.7
2020-Feb-28 07:25 211 2 gusting 7 -1.7
2020-Feb-28 07:20 214 2 gusting 6 -1.7
2020-Feb-28 07:15 231 3 gusting 9 -1.7
2020-Feb-28 07:10 241 2 gusting 9 -1.7
2020-Feb-28 07:05 225 2 gusting 8 -1.7
2020-Feb-28 07:00 221 2 gusting 6 -1.7
2020-Feb-28 06:55 224 2 gusting 6 -1.7
2020-Feb-28 06:50 223 1 gusting 8 -1.7
2020-Feb-28 06:45 220 2 gusting 8 -1.7
2020-Feb-28 06:40 211 2 gusting 9 -1.7
2020-Feb-28 06:35 216 2 gusting 9 -1.7
2020-Feb-28 06:30 214 2 gusting 5 -1.7
2020-Feb-28 06:25 213 2 gusting 5 -1.7
2020-Feb-28 06:20 223 2 gusting 8 -1.7
2020-Feb-28 06:15 232 2 gusting 8 -1.1
2020-Feb-28 06:10 234 2 gusting 7 -1.1
2020-Feb-28 06:05 225 2 gusting 6 -1.1
2020-Feb-28 06:00 216 2 gusting 13 -1.1
2020-Feb-28 05:55 217 3 gusting 13 -1.1
2020-Feb-28 05:50 226 2 gusting 10 -1.1
2020-Feb-28 05:45 220 3 gusting 10 -1.1
2020-Feb-28 05:40 228 3 gusting 10 -1.1
2020-Feb-28 05:35 240 2 gusting 10 -1.1
2020-Feb-28 05:30 225 3 gusting 10 -1.1
2020-Feb-28 05:25 232 3 gusting 10 -1.1
2020-Feb-28 05:20 247 2 gusting 7 -1.1
2020-Feb-28 05:15 241 2 gusting 8 -1.1
2020-Feb-28 05:10 231 3 gusting 10 -1.1
2020-Feb-28 05:05 248 3 gusting 10 -1.1
2020-Feb-28 05:00 252 3 gusting 10 -1.1
2020-Feb-28 04:55 233 3 gusting 10 -1.1
2020-Feb-28 04:50 237 3 gusting 9 -1.1
2020-Feb-28 04:45 243 3 gusting 11 -1.1
2020-Feb-28 04:40 233 3 gusting 11 -1.1
2020-Feb-28 04:35 221 3 gusting 9 -0.6
2020-Feb-28 04:30 236 3 gusting 11 -0.6
2020-Feb-28 04:25 244 4 gusting 11 -0.6
2020-Feb-28 04:20 240 4 gusting 13 -0.6
2020-Feb-28 04:15 240 4 gusting 13 -0.6
2020-Feb-28 04:10 230 3 gusting 8 -0.6
2020-Feb-28 04:05 226 4 gusting 12 -0.6
2020-Feb-28 04:00 245 4 gusting 12 -0.6
2020-Feb-28 03:55 244 4 gusting 14 -0.6
2020-Feb-28 03:50 226 4 gusting 14 -0.6
2020-Feb-28 03:45 224 2 gusting 11 -0.6
2020-Feb-28 03:40 236 3 gusting 12 -0.6
2020-Feb-28 03:35 252 3 gusting 12 -0.6
2020-Feb-28 03:30 238 3 gusting 11 -0.6
2020-Feb-28 03:25 218 3 gusting 11 -0.6
2020-Feb-28 03:20 226 2 gusting 8 -0.6
2020-Feb-28 03:15 258 3 gusting 9 -0.0
2020-Feb-28 03:10 262 4 gusting 10 -0.0
2020-Feb-28 03:05 255 4 gusting 10 -0.0
2020-Feb-28 03:00 254 3 gusting 10 -0.0
2020-Feb-28 02:55 246 3 gusting 13 -0.0
2020-Feb-28 02:50 238 5 gusting 13 -0.0
2020-Feb-28 02:45 231 4 gusting 13 -0.0
2020-Feb-28 02:40 223 4 gusting 14 -0.0
2020-Feb-28 02:35 219 4 gusting 14 -0.0
2020-Feb-28 02:30 228 3 gusting 9 -0.0
2020-Feb-28 02:25 231 3 gusting 9 -0.0
2020-Feb-28 02:20 233 3 gusting 9 -0.0
2020-Feb-28 02:15 249 3 gusting 7 -0.0
2020-Feb-28 02:10 252 4 gusting 8 -0.0
2020-Feb-28 02:05 258 4 gusting 14 -0.0
2020-Feb-28 02:00 257 4 gusting 14 -0.0
2020-Feb-28 01:55 246 4 gusting 12 -0.0
2020-Feb-28 01:50 253 4 gusting 12 -0.0
2020-Feb-28 01:45 260 4 gusting 12 -0.0
2020-Feb-28 01:40 259 4 gusting 12 -0.0
2020-Feb-28 01:35 243 3 gusting 8 -0.0
2020-Feb-28 01:30 227 3 gusting 10 -0.0
2020-Feb-28 01:25 235 3 gusting 10 -0.0
2020-Feb-28 01:20 244 3 gusting 8 -0.0
2020-Feb-28 01:15 250 3 gusting 8 0.6
2020-Feb-28 01:10 256 3 gusting 12 0.6
2020-Feb-28 01:05 261 5 gusting 12 0.6
2020-Feb-28 01:00 263 5 gusting 13 0.6
2020-Feb-28 00:55 258 4 gusting 13 0.6
2020-Feb-28 00:50 256 3 gusting 11 0.6
2020-Feb-28 00:45 255 3 gusting 11 0.6
2020-Feb-28 00:40 249 5 gusting 16 1.1
2020-Feb-28 00:35 236 5 gusting 16 1.1
2020-Feb-28 00:30 226 4 gusting 13 1.1
2020-Feb-28 00:25 228 3 gusting 12 1.1
2020-Feb-28 00:20 229 3 gusting 9 1.1
2020-Feb-28 00:15 230 3 gusting 9 1.7
2020-Feb-28 00:10 245 3 gusting 13 1.7
2020-Feb-28 00:05 270 4 gusting 17 1.7
2020-Feb-28 00:00 257 5 gusting 17 1.7
2020-Feb-27 23:55 236 4 gusting 13 1.7
2020-Feb-27 23:50 255 5 gusting 11 2.2
2020-Feb-27 23:45 263 5 gusting 14 2.2
2020-Feb-27 23:40 258 4 gusting 14 2.2
2020-Feb-27 23:35 259 2 gusting 8 2.2
2020-Feb-27 23:30 268 3 gusting 10 2.2
2020-Feb-27 23:25 248 3 gusting 10 2.2
2020-Feb-27 23:20 235 4 gusting 15 2.2
2020-Feb-27 23:15 257 5 gusting 17 2.2
2020-Feb-27 23:10 263 5 gusting 17 2.8
2020-Feb-27 23:05 249 4 gusting 12 2.8
2020-Feb-27 23:00 242 5 gusting 14 2.8
2020-Feb-27 22:55 243 5 gusting 14 2.8
2020-Feb-27 22:50 239 3 gusting 11 2.8
2020-Feb-27 22:45 256 4 gusting 17 3.3
2020-Feb-27 22:40 261 5 gusting 17 3.3
2020-Feb-27 22:35 250 5 gusting 15 3.3
2020-Feb-27 22:30 247 5 gusting 15 3.3
2020-Feb-27 22:25 250 4 gusting 11 3.3
2020-Feb-27 22:20 256 4 gusting 11 3.3
2020-Feb-27 22:15 262 5 gusting 12 3.3
2020-Feb-27 22:10 270 4 gusting 12 3.9
2020-Feb-27 22:05 266 5 gusting 11 3.9
2020-Feb-27 22:00 244 5 gusting 13 3.9
2020-Feb-27 21:55 236 5 gusting 13 3.9
2020-Feb-27 21:50 251 5 gusting 15 3.9
2020-Feb-27 21:45 265 5 gusting 15 3.9
2020-Feb-27 21:40 259 5 gusting 13 3.9
2020-Feb-27 21:35 251 5 gusting 15 3.9
2020-Feb-27 21:30 262 5 gusting 15 3.9
2020-Feb-27 21:25 264 6 gusting 13 4.4
2020-Feb-27 21:20 251 6 gusting 18 4.4
2020-Feb-27 21:15 252 6 gusting 18 4.4
2020-Feb-27 21:10 246 5 gusting 12 4.4
2020-Feb-27 21:05 253 5 gusting 12 5.0
2020-Feb-27 21:00 260 5 gusting 13 4.4
2020-Feb-27 20:55 249 4 gusting 13 5.0
2020-Feb-27 20:50 254 4 gusting 13 5.0
2020-Feb-27 20:45 242 4 gusting 13 5.0
2020-Feb-27 20:40 231 3 gusting 11 5.0
2020-Feb-27 20:35 259 4 gusting 13 5.0
2020-Feb-27 20:30 266 5 gusting 13 5.0
2020-Feb-27 20:25 260 6 gusting 16 5.0
2020-Feb-27 20:20 263 6 gusting 16 5.0
2020-Feb-27 20:15 265 6 gusting 13 5.0
2020-Feb-27 20:10 251 6 gusting 16 5.0
2020-Feb-27 20:05 251 5 gusting 16 5.0
2020-Feb-27 20:00 266 4 gusting 12 5.0
2020-Feb-27 19:55 249 5 gusting 12 5.0
2020-Feb-27 19:50 235 4 gusting 12 5.0
2020-Feb-27 19:45 259 4 gusting 13 5.0
2020-Feb-27 19:40 280 5 gusting 18 4.4
2020-Feb-27 19:35 280 6 gusting 19 4.4
2020-Feb-27 19:30 277 5 gusting 19 5.0
2020-Feb-27 19:25 268 4 gusting 13 5.0
2020-Feb-27 19:20 251 5 gusting 19 4.4
2020-Feb-27 19:15 265 6 gusting 19 4.4
2020-Feb-27 19:10 274 6 gusting 15 4.4
2020-Feb-27 19:05 273 5 gusting 15 4.4
2020-Feb-27 19:00 281 6 gusting 17 4.4
2020-Feb-27 18:55 277 6 gusting 17 4.4
2020-Feb-27 18:50 254 5 gusting 15 4.4
2020-Feb-27 18:45 267 6 gusting 15 4.4
2020-Feb-27 18:40 271 6 gusting 15 4.4
2020-Feb-27 18:35 255 5 gusting 16 4.4
2020-Feb-27 18:30 265 6 gusting 19 4.4
2020-Feb-27 18:25 271 6 gusting 19 4.4
2020-Feb-27 18:20 269 6 gusting 19 4.4
2020-Feb-27 18:15 268 6 gusting 18 4.4
2020-Feb-27 18:10 277 7 gusting 19 4.4
2020-Feb-27 18:05 280 8 gusting 19 4.4
2020-Feb-27 18:00 266 6 gusting 18 4.4
2020-Feb-27 17:55 271 6 gusting 18 4.4
2020-Feb-27 17:50 276 7 gusting 18 4.4
2020-Feb-27 17:45 260 6 gusting 16 4.4
2020-Feb-27 17:40 260 6 gusting 17 4.4
2020-Feb-27 17:35 270 6 gusting 17 4.4
2020-Feb-27 17:30 272 6 gusting 23 4.4
2020-Feb-27 17:25 270 7 gusting 23 4.4
2020-Feb-27 17:20 269 6 gusting 17 4.4
2020-Feb-27 17:15 276 6 gusting 13 4.4
2020-Feb-27 17:10 272 6 gusting 14 4.4
2020-Feb-27 17:05 265 6 gusting 17 4.4
2020-Feb-27 17:00 274 6 gusting 17 5.0
2020-Feb-27 16:55 273 5 gusting 12 5.0
2020-Feb-27 16:50 255 4 gusting 13 4.4
2020-Feb-27 16:45 265 5 gusting 14 4.4
2020-Feb-27 16:40 277 6 gusting 14 4.4
2020-Feb-27 16:35 272 6 gusting 13 4.4
2020-Feb-27 16:30 256 6 gusting 25 5.0
2020-Feb-27 16:25 266 6 gusting 25 5.0
2020-Feb-27 16:20 263 5 gusting 16 5.6
2020-Feb-27 16:15 246 5 gusting 12 5.6
2020-Feb-27 16:10 255 5 gusting 13 5.6
2020-Feb-27 16:05 256 5 gusting 13 5.6
2020-Feb-27 16:00 264 6 gusting 17 5.6
2020-Feb-27 15:55 270 6 gusting 17 5.6
2020-Feb-27 15:50 269 6 gusting 15 5.6
2020-Feb-27 15:45 260 6 gusting 13 5.6
2020-Feb-27 15:40 253 5 gusting 15 5.6
2020-Feb-27 15:35 262 5 gusting 15 5.6
2020-Feb-27 15:30 265 5 gusting 14 5.6
2020-Feb-27 15:25 250 5 gusting 13 5.6
2020-Feb-27 15:20 248 5 gusting 13 5.6
2020-Feb-27 15:15 254 6 gusting 13 5.6
2020-Feb-27 15:10 255 6 gusting 15 5.6
2020-Feb-27 15:05 258 6 gusting 18 5.6
2020-Feb-27 15:00 253 6 gusting 18 5.6
2020-Feb-27 14:55 244 5 gusting 16 6.1
2020-Feb-27 14:50 238 5 gusting 16 6.1
2020-Feb-27 14:45 234 5 gusting 11 5.6
2020-Feb-27 14:40 239 4 gusting 12 5.6
2020-Feb-27 14:35 251 4 gusting 12 5.6
2020-Feb-27 14:30 241 4 gusting 10 5.6
2020-Feb-27 14:25 229 4 gusting 9 6.1
2020-Feb-27 14:20 251 4 gusting 14 6.1
2020-Feb-27 14:15 257 4 gusting 14 6.1
2020-Feb-27 14:10 236 4 gusting 12 6.1
2020-Feb-27 14:05 229 3 gusting 11 6.1
2020-Feb-27 14:00 235 3 gusting 11 6.1
2020-Feb-27 13:55 230 2 gusting 6 6.1
2020-Feb-27 13:50 221 2 gusting 9 6.1
2020-Feb-27 13:45 220 3 gusting 9 6.1
2020-Feb-27 13:40 221 3 gusting 11 6.1
2020-Feb-27 13:35 227 3 gusting 11 6.1
2020-Feb-27 13:30 227 3 gusting 11 6.1
2020-Feb-27 13:25 229 3 gusting 9 6.1
2020-Feb-27 13:20 236 4 gusting 17 6.1
2020-Feb-27 13:15 234 4 gusting 17 6.1
2020-Feb-27 13:10 225 3 gusting 17 6.1
2020-Feb-27 13:05 230 2 gusting 8 6.1
2020-Feb-27 13:00 223 3 gusting 10 6.1
2020-Feb-27 12:55 212 3 gusting 13 6.7
2020-Feb-27 12:50 218 4 gusting 13 6.7
2020-Feb-27 12:45 219 4 gusting 11 6.7
2020-Feb-27 12:40 211 4 gusting 14 6.7
2020-Feb-27 12:35 208 5 gusting 16 6.7
2020-Feb-27 12:30 202 4 gusting 16 6.7
2020-Feb-27 12:25 197 4 gusting 10 6.7
2020-Feb-27 12:20 200 5 gusting 11 6.7
2020-Feb-27 12:15 197 5 gusting 11 7.2
2020-Feb-27 12:10 198 5 gusting 11 7.2
2020-Feb-27 12:05 203 5 gusting 13 7.2
2020-Feb-27 12:00 204 4 gusting 13 7.2
2020-Feb-27 11:55 202 4 gusting 8 7.2
2020-Feb-27 11:50 201 4 gusting 9 7.8
2020-Feb-27 11:45 199 4 gusting 9 7.8
2020-Feb-27 11:40 197 4 gusting 10 7.8
2020-Feb-27 11:35 196 4 gusting 10 7.8
2020-Feb-27 11:30 197 3 gusting 8 7.8
2020-Feb-27 11:25 204 2 gusting 6 7.8
2020-Feb-27 11:20 203 1 gusting 7 7.8
2020-Feb-27 11:15 196 0 gusting 7 7.2
2020-Feb-27 11:10 105 7.2
2020-Feb-27 11:05 106 0 gusting 2 6.7
2020-Feb-27 11:00 101 0 gusting 2 6.7
2020-Feb-27 10:55 095 0 gusting 3 6.7
2020-Feb-27 10:50 103 0 gusting 3 6.7
2020-Feb-27 10:45 104 0 gusting 6 6.7
2020-Feb-27 10:40 101 0 gusting 6 6.7
2020-Feb-27 10:35 103 2 gusting 7 6.7
2020-Feb-27 10:30 103 2 gusting 7 6.7
2020-Feb-27 10:25 102 0 gusting 7 6.7
2020-Feb-27 10:20 100 1 gusting 7 6.1
2020-Feb-27 10:15 098 1 gusting 7 6.1
2020-Feb-27 10:10 104 2 gusting 7 6.1
2020-Feb-27 10:05 104 3 gusting 9 6.1
2020-Feb-27 10:00 104 3 gusting 11 5.6
2020-Feb-27 09:55 103 3 gusting 11 5.6
2020-Feb-27 09:50 101 3 gusting 11 5.6
2020-Feb-27 09:45 099 4 gusting 11 5.6
2020-Feb-27 09:40 100 4 gusting 12 5.6
2020-Feb-27 09:35 103 5 gusting 13 5.6
2020-Feb-27 09:30 102 5 gusting 13 5.6
2020-Feb-27 09:25 099 5 gusting 12 5.6
2020-Feb-27 09:20 096 5 gusting 14 5.6
2020-Feb-27 09:15 096 5 gusting 14 5.6
2020-Feb-27 09:10 096 4 gusting 12 5.6
2020-Feb-27 09:05 097 4 gusting 12 6.1
2020-Feb-27 09:00 099 5 gusting 13 6.1
2020-Feb-27 08:55 100 6 gusting 13 6.1
2020-Feb-27 08:50 104 6 gusting 14 6.1
2020-Feb-27 08:45 104 6 gusting 19 6.7
2020-Feb-27 08:40 104 6 gusting 19 6.7
2020-Feb-27 08:35 103 7 gusting 20 6.7
2020-Feb-27 08:30 102 6 gusting 20 6.7
2020-Feb-27 08:25 102 6 gusting 14 6.7
2020-Feb-27 08:20 100 4 gusting 12 6.7
2020-Feb-27 08:15 101 2 gusting 12 6.7
2020-Feb-27 08:10 104 3 gusting 13 7.2
2020-Feb-27 08:05 104 5 gusting 13 7.2
2020-Feb-27 08:00 101 3 gusting 13 7.2
2020-Feb-27 07:55 095 2 gusting 10 7.2
2020-Feb-27 07:50 098 1 gusting 8 7.2
2020-Feb-27 07:45 096 2 gusting 13 7.2
2020-Feb-27 07:40 095 3 gusting 13 7.2
2020-Feb-27 07:35 107 4 gusting 14 7.2
2020-Feb-27 07:30 108 4 gusting 14 7.2
2020-Feb-27 07:25 100 3 gusting 11 6.7
2020-Feb-27 07:20 101 4 gusting 9 6.7
2020-Feb-27 07:15 101 4 gusting 9 6.7
2020-Feb-27 07:10 096 3 gusting 9 6.7
2020-Feb-27 07:05 099 2 gusting 6 6.7
2020-Feb-27 07:00 096 3 gusting 9 6.7
2020-Feb-27 06:55 095 3 gusting 9 6.7
2020-Feb-27 06:50 103 4 gusting 13 6.7
2020-Feb-27 06:45 102 4 gusting 13 6.7
2020-Feb-27 06:40 097 4 gusting 13 6.7
2020-Feb-27 06:35 097 4 gusting 13 6.7
2020-Feb-27 06:30 097 4 gusting 12 6.7
2020-Feb-27 06:25 097 4 gusting 12 6.7
2020-Feb-27 06:20 100 4 gusting 9 6.7
2020-Feb-27 06:15 101 4 gusting 13 6.7
2020-Feb-27 06:10 098 4 gusting 13 6.7
2020-Feb-27 06:05 099 4 gusting 12 6.7
2020-Feb-27 06:00 099 5 gusting 15 6.7
2020-Feb-27 05:55 099 4 gusting 15 6.7
2020-Feb-27 05:50 101 4 gusting 10 6.7
2020-Feb-27 05:45 095 3 gusting 9 6.7
2020-Feb-27 05:40 094 4 gusting 10 6.7
2020-Feb-27 05:35 102 6 gusting 15 6.1
2020-Feb-27 05:30 104 5 gusting 15 6.1
2020-Feb-27 05:25 099 5 gusting 13 6.1
2020-Feb-27 05:20 100 5 gusting 13 6.1
2020-Feb-27 05:15 104 5 gusting 13 6.1
2020-Feb-27 05:10 104 4 gusting 11 6.1
2020-Feb-27 05:05 105 4 gusting 8 6.1
2020-Feb-27 05:00 107 4 gusting 9 5.6
2020-Feb-27 04:55 107 4 gusting 9 5.6
2020-Feb-27 04:50 103 3 gusting 8 5.6
2020-Feb-27 04:45 101 3 gusting 9 5.6
2020-Feb-27 04:40 100 4 gusting 12 5.6
2020-Feb-27 04:35 102 5 gusting 12 5.6
2020-Feb-27 04:30 100 5 gusting 15 5.6
2020-Feb-27 04:25 095 5 gusting 15 5.6
2020-Feb-27 04:20 103 4 gusting 13 5.6
2020-Feb-27 04:15 104 5 gusting 13 5.6
2020-Feb-27 04:10 098 5 gusting 13 5.6
2020-Feb-27 04:05 098 4 gusting 13 5.6
2020-Feb-27 04:00 103 5 gusting 10 5.6
2020-Feb-27 03:55 101 5 gusting 12 5.6
2020-Feb-27 03:50 098 5 gusting 13 5.6
2020-Feb-27 03:40 105 5 gusting 12 5.6
2020-Feb-27 03:35 100 5 gusting 12 5.6
2020-Feb-27 03:30 101 5 gusting 12 5.6
2020-Feb-27 03:25 102 5 gusting 12 5.6
2020-Feb-27 03:20 097 4 gusting 10 5.6
2020-Feb-27 03:15 098 3 gusting 9 5.6
2020-Feb-27 03:10 098 3 gusting 9 5.6
2020-Feb-27 03:05 101 5 gusting 11 5.6
2020-Feb-27 03:00 099 4 gusting 11 5.6
2020-Feb-27 02:55 096 3 gusting 7 5.6
2020-Feb-27 02:50 100 4 gusting 8 5.6
2020-Feb-27 02:45 099 3 gusting 9 5.6
2020-Feb-27 02:40 094 3 gusting 9 5.6
2020-Feb-27 02:35 096 4 gusting 12 5.6
2020-Feb-27 02:30 099 4 gusting 12 5.6
2020-Feb-27 02:25 105 4 gusting 10 5.6
2020-Feb-27 02:20 105 3 gusting 10 5.6
2020-Feb-27 02:15 101 3 gusting 9 5.6
2020-Feb-27 02:10 105 3 gusting 9 6.1
2020-Feb-27 02:05 105 4 gusting 10 6.1
2020-Feb-27 02:00 101 4 gusting 10 6.1
2020-Feb-27 01:55 100 4 gusting 9 6.1
2020-Feb-27 01:50 102 4 gusting 12 6.1
2020-Feb-27 01:45 102 4 gusting 12 6.1
2020-Feb-27 01:40 097 3 gusting 7 6.1
2020-Feb-27 01:35 094 3 gusting 11 6.1
2020-Feb-27 01:30 100 4 gusting 11 6.1
2020-Feb-27 01:25 099 4 gusting 11 6.1
2020-Feb-27 01:20 099 3 gusting 11 6.1
2020-Feb-27 01:15 099 3 gusting 8 6.1
2020-Feb-27 01:10 099 3 gusting 8 6.1
2020-Feb-27 01:05 104 4 gusting 9 6.1
2020-Feb-27 01:00 106 4 gusting 9 6.1
2020-Feb-27 00:55 104 3 gusting 8 6.1
2020-Feb-27 00:50 104 4 gusting 9 6.1
2020-Feb-27 00:45 105 4 gusting 9 6.1
2020-Feb-27 00:40 107 4 gusting 9 6.1
2020-Feb-27 00:35 108 3 gusting 6 6.1
2020-Feb-27 00:30 103 2 gusting 6 6.7
2020-Feb-27 00:25 100 3 gusting 7 6.7
2020-Feb-27 00:20 101 4 gusting 9 6.7
2020-Feb-27 00:15 101 5 gusting 9 6.7
2020-Feb-27 00:10 104 4 gusting 11 6.7
2020-Feb-27 00:05 104 4 gusting 11 6.7
2020-Feb-27 00:00 102 4 gusting 10 6.7
2020-Feb-26 23:55 103 3 gusting 10 6.7
2020-Feb-26 23:50 101 3 gusting 10 6.7
2020-Feb-26 23:45 104 3 gusting 10 6.7
2020-Feb-26 23:40 111 3 gusting 7 6.7
2020-Feb-26 23:35 112 2 gusting 6 6.7
2020-Feb-26 23:30 111 2 gusting 6 6.7
2020-Feb-26 23:25 108 2 gusting 6 7.2
2020-Feb-26 23:20 107 2 gusting 6 7.2
2020-Feb-26 23:15 104 2 gusting 8 7.2
2020-Feb-26 23:10 097 2 gusting 8 7.2
2020-Feb-26 23:05 104 3 gusting 6 7.2
2020-Feb-26 23:00 107 2 gusting 6 7.2
2020-Feb-26 22:55 098 2 gusting 6 7.2
2020-Feb-26 22:50 099 2 gusting 6 7.2
2020-Feb-26 22:45 104 2 gusting 6 7.2
2020-Feb-26 22:40 103 2 gusting 6 7.2
2020-Feb-26 22:35 107 2 gusting 6 7.2
2020-Feb-26 22:30 101 2 gusting 6 7.2
2020-Feb-26 22:25 096 2 gusting 7 7.2
2020-Feb-26 22:20 096 2 gusting 7 7.2
2020-Feb-26 22:15 093 1 gusting 5 7.2
2020-Feb-26 22:10 101 1 gusting 5 7.2
2020-Feb-26 22:05 118 0 gusting 3 7.2
2020-Feb-26 22:00 111 1 gusting 5 7.2
2020-Feb-26 21:55 110 2 gusting 6 7.2
2020-Feb-26 21:50 110 1 gusting 6 7.2
2020-Feb-26 21:45 103 1 gusting 5 7.2
2020-Feb-26 21:40 100 1 gusting 5 7.2
2020-Feb-26 21:35 098 1 gusting 5 7.8
2020-Feb-26 21:30 103 1 gusting 5 7.8
2020-Feb-26 21:25 109 1 gusting 5 7.8
2020-Feb-26 21:20 104 1 gusting 3 7.8
2020-Feb-26 21:15 093 1 gusting 3 7.8
2020-Feb-26 21:10 090 1 gusting 3 7.8
2020-Feb-26 21:05 085 1 gusting 3 7.8
2020-Feb-26 21:00 086 1 gusting 6 7.8
2020-Feb-26 20:55 090 1 gusting 6 7.8
2020-Feb-26 20:50 094 1 gusting 6 7.8
2020-Feb-26 20:45 097 1 gusting 5 7.8
2020-Feb-26 20:40 099 1 gusting 5 7.8
2020-Feb-26 20:35 094 1 gusting 4 7.8
2020-Feb-26 20:30 100 1 gusting 5 7.8
2020-Feb-26 20:25 103 1 gusting 5 7.8
2020-Feb-26 20:20 102 1 gusting 4 7.8
2020-Feb-26 20:15 107 0 gusting 6 7.8
2020-Feb-26 20:10 102 0 gusting 6 7.8
2020-Feb-26 20:05 109 2 gusting 8 7.8
2020-Feb-26 20:00 110 2 gusting 8 7.8
2020-Feb-26 19:55 114 1 gusting 5 7.8
2020-Feb-26 19:50 120 1 gusting 5 7.8
2020-Feb-26 19:45 110 2 gusting 8 7.8
2020-Feb-26 19:40 105 2 gusting 8 7.8
2020-Feb-26 19:35 100 2 gusting 6 7.8
2020-Feb-26 19:30 093 2 gusting 6 7.8
2020-Feb-26 19:25 083 1 gusting 5 7.8
2020-Feb-26 19:20 080 1 gusting 7 7.8
2020-Feb-26 19:15 094 2 gusting 7 7.8
2020-Feb-26 19:10 111 2 gusting 6 7.8
2020-Feb-26 19:05 114 2 gusting 6 7.8
2020-Feb-26 19:00 108 2 gusting 7 7.8
2020-Feb-26 18:55 113 2 gusting 7 7.8
2020-Feb-26 18:50 112 2 gusting 6 7.8
2020-Feb-26 18:45 105 1 gusting 6 7.8
2020-Feb-26 18:40 109 2 gusting 6 7.8
2020-Feb-26 18:35 116 2 gusting 6 7.8
2020-Feb-26 18:30 112 2 gusting 7 7.8
2020-Feb-26 18:25 105 3 gusting 8 7.8
2020-Feb-26 18:20 106 3 gusting 8 7.8
2020-Feb-26 18:15 106 2 gusting 7 8.3
2020-Feb-26 18:10 106 2 gusting 8 8.3
2020-Feb-26 18:05 109 2 gusting 8 8.3
2020-Feb-26 18:00 108 2 gusting 6 8.3
2020-Feb-26 17:55 103 3 gusting 9 7.8
2020-Feb-26 17:50 100 4 gusting 10 7.8
2020-Feb-26 17:45 101 3 gusting 10 7.8
2020-Feb-26 17:40 107 2 gusting 7 8.3
2020-Feb-26 17:35 108 3 gusting 7 7.8
2020-Feb-26 17:30 113 3 gusting 7 7.8
2020-Feb-26 17:25 113 3 gusting 7 7.8
2020-Feb-26 17:20 105 3 gusting 9 7.8
2020-Feb-26 17:15 105 3 gusting 9 7.8
2020-Feb-26 17:10 108 4 gusting 9 7.8
2020-Feb-26 17:05 104 3 gusting 9 7.8
2020-Feb-26 17:00 104 3 gusting 9 7.8
2020-Feb-26 16:55 109 3 gusting 8 7.8
2020-Feb-26 16:50 108 3 gusting 7 7.8
2020-Feb-26 16:45 108 3 gusting 7 7.8
2020-Feb-26 16:40 107 2 gusting 7 7.8
2020-Feb-26 16:35 107 2 gusting 7 7.8
2020-Feb-26 16:30 106 2 gusting 6 7.8
2020-Feb-26 16:25 106 2 gusting 7 7.8
2020-Feb-26 16:20 107 2 gusting 7 7.8
2020-Feb-26 16:15 107 2 gusting 11 7.8
2020-Feb-26 16:10 106 2 gusting 11 7.8
2020-Feb-26 16:05 104 1 gusting 6 7.8
2020-Feb-26 16:00 108 1 gusting 6 7.8
2020-Feb-26 15:55 108 1 gusting 6 7.8
2020-Feb-26 15:50 104 1 gusting 6 7.8
2020-Feb-26 15:45 104 0 gusting 5 7.8
2020-Feb-26 15:40 106 0 gusting 5 7.8
2020-Feb-26 15:35 113 0 gusting 6 7.8
2020-Feb-26 15:30 111 1 gusting 6 7.8
2020-Feb-26 15:25 108 0 gusting 6 7.8
2020-Feb-26 15:20 110 1 gusting 6 7.2
2020-Feb-26 15:15 108 1 gusting 6 7.2
2020-Feb-26 15:10 102 0 gusting 5 7.2
2020-Feb-26 15:05 092 0 gusting 5 7.2
2020-Feb-26 15:00 096 0 gusting 3 7.2
2020-Feb-26 14:55 108 0 gusting 5 7.2
2020-Feb-26 14:50 116 0 gusting 5 7.2
2020-Feb-26 14:44 116 0 gusting 5 7.2
2020-Feb-26 14:40 116 7.2
2020-Feb-26 14:35 116 0 gusting 2 7.2
2020-Feb-26 14:30 114 0 gusting 6 7.2
2020-Feb-26 14:25 111 1 gusting 6 6.7
2020-Feb-26 14:20 110 1 gusting 6 6.7
2020-Feb-26 14:15 110 1 gusting 6 6.7
2020-Feb-26 14:10 109 1 gusting 6 6.7
2020-Feb-26 14:05 111 1 gusting 6 6.7
2020-Feb-26 14:00 113 0 gusting 6 6.7
2020-Feb-26 13:55 114 0 gusting 5 6.7
2020-Feb-26 13:50 114 0 gusting 3 6.7
2020-Feb-26 13:45 114 0 gusting 3 6.7
2020-Feb-26 13:40 114 6.7
2020-Feb-26 13:34 114 6.7
2020-Feb-26 13:30 115 6.7
2020-Feb-26 13:24 115 6.7
2020-Feb-26 13:20 118 6.7
2020-Feb-26 13:15 120 6.7
2020-Feb-26 13:10 120 6.7
2020-Feb-26 13:05 120 6.7
2020-Feb-26 13:00 120 6.7